FW2897 Weather Reports


Display with metric or nautical units.
time (UTC)temp
F
wind
direction
speed
MPH
gust
MPH
rain 1hr
in
rain 24hr
in
rain mn
in
humidity
%
barometer
mb
20260903062520 71 102 0.0 1.0 0.60 0.73 0.60 93 1018.2
20260903062021 71 103 0.0 1.0 0.58 0.71 0.58 93 1018.1
20260903061450 72 98 0.0 1.0 0.54 0.67 0.55 93 1018.1
20260903060949 72 132 0.0 3.0 0.52 0.65 0.52 93 1018.9
20260903060421 72 115 0.0 1.0 0.42 0.55 0.42 93 1019.2
20260903055857 72 263 0.0 1.0 0.42 0.55 0.42 93 1019.7
20260903055329 72 280 0.0 1.0 0.41 0.54 0.41 93 1019.5
20260903054801 72 277 0.0 1.0 0.40 0.53 0.40 92 1019.6
20260903054258 72 161 0.0 4.0 0.20 0.33 0.20 92 1018.7
20260903053734 72 332 0.0 4.0 0.00 0.13 0.00 92 1020.3
20260903053207 72 106 0.0 1.0 0.00 0.13 0.00 92 1019.0
20260903052641 72 113 0.0 1.0 0.00 0.13 0.00 92 1018.2
20260903052130 72 94 0.0 2.0 0.00 0.13 0.00 92 1018.5
20260903051626 72 91 0.0 2.0 0.00 0.13 0.00 92 1018.5
20260903051125 72 150 0.0 2.0 0.00 0.13 0.00 92 1018.4
20260903050636 72 141 0.0 1.0 0.00 0.13 0.00 92 1018.5
20260903050109 72 134 0.0 1.0 0.00 0.13 0.00 92 1018.5
20260903045547 72 138 0.0 1.0 0.00 0.13 0.00 92 1018.5
20260903045046 73 138 0.0 1.0 0.00 0.13 0.00 92 1018.5
20260903044531 72 138 0.0 1.0 0.00 0.13 0.00 92 1018.4
20260903044027 72 143 0.0 0.0 0.00 0.13 0.00 92 1018.5
20260903043531 72 138 0.0 0.0 0.00 0.14 0.00 92 1018.7
20260903043026 72 138 0.0 0.0 0.00 0.14 0.00 92 1018.8
20260903042526 72 139 0.0 1.0 0.00 0.14 0.00 92 1018.7
20260903041955 72 128 0.0 1.0 0.00 0.14 0.00 92 1018.7
20260903041717 72 109 0.0 1.0 0.00 0.14 0.00 92 1018.8
20260903040953 73 89 0.0 0.0 0.00 0.14 0.00 92 1019.0
20260903040505 73 195 0.0 0.0 0.00 0.14 0.00 92 1019.1
20260903040205 73 177 0.0 0.0 0.00 0.14 0.14 92 1019.1
20260903035441 73 177 0.0 0.0 0.00 0.14 0.14 92 1019.2
20260903034913 73 177 0.0 0.0 0.00 0.14 0.14 91 1019.1
20260903034410 73 177 0.0 0.0 0.00 0.14 0.14 91 1019.2
20260903033843 73 177 0.0 0.0 0.00 0.14 0.14 92 1019.3
20260903033607 73 177 0.0 0.0 0.00 0.14 0.14 91 1019.3
20260903032813 73 226 0.0 0.0 0.00 0.14 0.14 92 1019.2
20260903032310 73 245 0.0 0.0 0.00 0.14 0.14 91 1019.2
20260903031746 73 245 0.0 0.0 0.00 0.14 0.14 92 1019.3
20260903031436 73 229 0.0 1.0 0.00 0.14 0.14 91 1019.1
20260903030716 73 131 0.0 1.0 0.00 0.14 0.14 92 1019.3
20260903030148 73 136 0.0 1.0 0.00 0.14 0.14 92 1019.3
20260903025623 73 136 0.0 1.0 0.00 0.14 0.14 92 1019.3
20260903025349 73 222 0.0 1.0 0.00 0.14 0.14 92 1019.2
20260903024813 73 54 0.0 1.0 0.00 0.14 0.14 92 1019.4
20260903024051 73 52 0.0 2.0 0.00 0.14 0.14 91 1019.5
20260903023527 73 96 0.0 1.0 0.00 0.15 0.14 91 1019.1
20260903023027 73 88 0.0 2.0 0.00 0.15 0.14 91 1019.3
20260903022524 73 101 0.0 2.0 0.00 0.15 0.14 91 1019.4
20260903022027 73 82 0.0 1.0 0.00 0.15 0.14 91 1019.1
20260903021458 73 81 0.0 2.0 0.00 0.15 0.14 91 1019.0
20260903021222 73 74 0.0 2.0 0.00 0.15 0.14 91 1019.0
20260903020927 73 93 0.0 2.0 0.00 0.15 0.14 91 1018.8
20260903015928 73 92 0.0 2.0 0.00 0.15 0.14 91 1018.8
20260903015430 73 131 0.0 1.0 0.00 0.15 0.14 91 1018.8
20260903014905 73 124 0.0 1.0 0.00 0.15 0.14 91 1019.1
20260903014405 73 84 0.0 3.0 0.00 0.15 0.14 91 1019.2
20260903013843 73 96 0.0 3.0 0.00 0.15 0.14 91 1019.1
20260903013343 73 98 0.0 3.0 0.00 0.15 0.14 91 1019.1
20260903013045 73 101 0.0 3.0 0.00 0.15 0.14 91 1019.1
20260903012256 73 91 0.0 2.0 0.00 0.15 0.14 91 1019.0
20260903011736 73 98 0.0 2.0 0.00 0.15 0.14 91 1019.1
20260903011221 73 107 0.0 1.0 0.00 0.15 0.14 91 1019.3
20260903010658 73 107 0.0 1.0 0.00 0.15 0.14 91 1019.1
20260903010139 74 107 0.0 1.0 0.00 0.15 0.14 91 1019.2
20260903005622 73 107 0.0 1.0 0.00 0.15 0.14 91 1019.1
20260903005058 74 107 0.0 2.0 0.00 0.19 0.14 91 1019.0
20260903004541 74 94 0.0 2.0 0.00 0.26 0.14 90 1019.1
20260903004025 74 101 0.0 1.0 0.00 0.44 0.14 90 1019.2
20260903003743 74 101 0.0 1.0 0.00 0.52 0.14 90 1019.1
20260903003022 74 101 0.0 1.0 0.00 0.60 0.14 90 1019.1
20260903002502 74 116 0.0 1.0 0.00 0.62 0.14 90 1019.0
20260903002206 74 64 0.0 2.0 0.00 0.63 0.14 90 1019.1
20260903001700 74 51 0.0 3.0 0.00 0.63 0.14 90 1019.0
20260903001156 74 93 0.0 3.0 0.00 0.63 0.14 90 1018.9
20260903000916 74 107 0.0 1.0 0.00 0.63 0.14 90 1019.0
20260902235904 74 107 0.0 1.0 0.00 0.63 0.14 90 1019.0
20260902235343 74 108 0.0 2.0 0.00 0.63 0.14 90 1018.8
20260902234842 74 86 0.0 2.0 0.00 0.63 0.14 90 1018.8
20260902234341 74 113 0.0 2.0 0.00 0.63 0.14 90 1018.8
20260902233836 74 100 1.0 4.0 0.00 0.63 0.14 90 1018.8
20260902233307 74 110 1.0 4.0 0.00 0.63 0.14 90 1018.7
20260902232805 74 47 0.0 2.0 0.00 0.63 0.14 91 1018.8
20260902232501 74 89 0.0 1.0 0.00 0.63 0.14 91 1018.9
20260902231727 74 140 0.0 2.0 0.00 0.63 0.14 91 1018.8
20260902231229 74 68 0.0 2.0 0.00 0.63 0.14 91 1018.8
20260902230700 74 96 0.0 1.0 0.00 0.63 0.14 91 1018.8
20260902230159 74 97 0.0 3.0 0.00 0.63 0.14 91 1018.8
20260902225630 74 84 1.0 3.0 0.00 0.63 0.14 91 1018.8
20260902225126 74 94 1.0 3.0 0.00 0.63 0.14 91 1018.8
20260902224624 75 98 0.0 3.0 0.00 0.63 0.14 91 1018.8
20260902224122 75 105 0.0 1.0 0.00 0.63 0.14 91 1018.9
20260902223551 75 105 0.0 0.0 0.00 0.63 0.14 91 1018.9
20260902223046 75 106 0.0 1.0 0.00 0.63 0.14 91 1019.0
20260902222544 75 94 0.0 2.0 0.00 0.63 0.14 91 1019.1
20260902222016 75 134 0.0 2.0 0.00 0.63 0.14 90 1019.2
20260902221527 75 252 0.0 2.0 0.00 0.63 0.14 90 1019.4
20260902220949 75 141 0.0 1.0 0.00 0.63 0.14 91 1019.3
20260902220651 75 101 0.0 2.0 0.00 0.63 0.14 91 1019.3
20260902215918 75 95 0.0 2.0 0.00 0.63 0.14 91 1019.4
20260902215410 75 71 0.0 2.0 0.00 0.63 0.14 91 1019.4
20260902215134 75 42 0.0 1.0 0.00 0.63 0.14 91 1019.3
20260902214339 75 51 0.0 3.0 0.00 0.63 0.14 91 1019.1
20260902214331 75 56 0.0 3.0 0.00 0.63 0.14 90 1019.0
20260902213311 75 120 0.0 4.0 0.00 0.63 0.14 90 1019.1
20260902212743 75 91 1.0 4.0 0.00 0.63 0.14 90 1018.9
20260902212241 75 118 0.0 3.0 0.00 0.63 0.14 90 1018.8
20260902211752 75 83 0.0 2.0 0.00 0.63 0.14 91 1018.9
20260902211236 75 100 0.0 2.0 0.00 0.63 0.14 90 1018.9
20260902210733 75 127 0.0 2.0 0.00 0.63 0.14 91 1018.9
20260902210439 75 145 0.0 2.0 0.00 0.63 0.14 91 1019.1
20260902205640 75 99 0.0 3.0 0.00 0.63 0.14 91 1019.1
20260902205400 75 122 0.0 3.0 0.00 0.63 0.14 91 1019.0
20260902204835 75 102 0.0 1.0 0.00 0.63 0.14 91 1019.2
20260902204043 75 143 0.0 1.0 0.00 0.63 0.14 91 1019.3
20260902203541 75 77 0.0 3.0 0.00 0.63 0.14 91 1019.3
20260902203016 75 129 0.0 3.0 0.00 0.63 0.14 91 1019.2
20260902202452 75 127 0.0 3.0 0.00 0.63 0.14 91 1019.2
20260902201925 75 101 0.0 3.0 0.00 0.63 0.14 91 1019.1
20260902201358 75 81 0.0 3.0 0.00 0.63 0.14 92 1019.0
20260902200834 75 94 0.0 2.0 0.00 0.63 0.14 92 1018.9
20260902200303 75 88 0.0 3.0 0.00 0.63 0.14 92 1018.9
20260902195802 74 78 0.0 3.0 0.00 0.63 0.14 92 1019.1
20260902195235 74 101 0.0 3.0 0.01 0.63 0.14 92 1018.9
20260902194712 74 138 0.0 3.0 0.01 0.63 0.14 92 1019.3
20260902194141 74 199 0.0 1.0 0.02 0.63 0.14 93 1019.2
20260902193641 74 103 0.0 1.0 0.02 0.63 0.14 93 1019.3
20260902193614 74 102 0.0 2.0 0.03 0.63 0.14 93 1019.2
20260902192610 74 121 0.0 2.0 0.03 0.63 0.14 93 1019.0
20260902192053 74 139 0.0 1.0 0.04 0.63 0.14 93 1019.2
20260902191555 74 152 0.0 0.0 0.04 0.63 0.14 93 1019.4
20260902191051 74 152 0.0 0.0 0.06 0.63 0.14 93 1019.4
20260902190554 74 152 0.0 0.0 0.07 0.63 0.14 93 1019.5
20260902190029 74 152 0.0 0.0 0.09 0.63 0.14 93 1019.5
20260902185526 74 152 0.0 0.0 0.11 0.63 0.14 93 1019.7
20260902185001 73 152 0.0 1.0 0.12 0.62 0.13 93 1019.7
20260902184435 73 240 0.0 0.0 0.11 0.61 0.12 93 1019.6
20260902183933 73 244 0.0 0.0 0.11 0.61 0.12 92 1019.8
20260902183414 73 244 0.0 0.0 0.11 0.61 0.12 92 1019.7
20260902182910 73 243 0.0 1.0 0.10 0.60 0.11 92 1019.8
20260902182409 73 243 0.0 1.0 0.10 0.60 0.11 91 1019.8
20260902181849 73 200 0.0 1.0 0.09 0.59 0.10 91 1019.5
20260902181351 74 234 0.0 2.0 0.08 0.58 0.09 91 1019.9
20260902180824 74 128 0.0 3.0 0.07 0.57 0.08 90 1019.9
20260902180327 74 162 0.0 3.0 0.05 0.55 0.06 90 1020.2
20260902175807 74 251 0.0 1.0 0.03 0.53 0.05 90 1020.8
20260902175311 74 251 0.0 1.0 0.02 0.52 0.03 89 1021.1
20260902174746 74 251 0.0 1.0 0.00 0.50 0.01 89 1021.1
20260902174241 74 251 0.0 1.0 0.00 0.50 0.01 88 1021.1
20260902174005 75 251 0.0 0.0 0.00 0.50 0.01 88 1021.0
20260902173224 75 251 0.0 1.0 0.00 0.50 0.01 88 1021.2
20260902172707 75 251 0.0 1.0 0.00 0.50 0.01 88 1021.1
20260902172204 75 195 0.0 0.0 0.00 0.50 0.01 88 1021.1
20260902171705 75 195 0.0 0.0 0.00 0.50 0.01 88 1021.1
20260902171413 75 233 0.0 1.0 0.00 0.50 0.01 88 1021.0
20260902170643 75 233 0.0 1.0 0.00 0.50 0.01 87 1021.2
20260902170140 75 240 0.0 1.0 0.00 0.50 0.01 88 1021.2
20260902165636 75 243 0.0 1.0 0.00 0.50 0.01 88 1021.1
20260902165134 75 221 0.0 1.0 0.00 0.50 0.01 88 1021.0
20260902164635 75 130 0.0 1.0 0.00 0.50 0.01 88 1021.0
20260902164355 75 123 0.0 1.0 0.00 0.50 0.01 88 1020.9
20260902163634 74 104 0.0 1.0 0.00 0.50 0.01 88 1020.8
20260902163132 74 94 0.0 1.0 0.00 0.50 0.01 89 1020.7
20260902162608 74 178 0.0 4.0 0.00 0.50 0.01 89 1020.7
20260902162107 74 111 0.0 4.0 0.00 0.50 0.01 88 1020.6
20260902161831 74 140 1.0 5.0 0.00 0.50 0.01 89 1020.6
20260902161819 74 102 0.0 4.0 0.00 0.50 0.01 89 1020.5
20260902160604 74 122 1.0 5.0 0.00 0.50 0.01 89 1020.7
20260902160341 74 67 0.0 3.0 0.00 0.50 0.01 89 1020.6
20260902155541 74 181 0.0 3.0 0.00 0.50 0.01 89 1020.6
20260902155235 74 84 0.0 2.0 0.00 0.50 0.01 89 1020.6
20260902154510 74 37 1.0 3.0 0.00 0.50 0.01 90 1020.6
20260902153945 74 78 0.0 3.0 0.00 0.50 0.01 90 1020.5
20260902153417 74 179 0.0 1.0 0.00 0.50 0.01 91 1020.5
20260902152918 73 227 0.0 1.0 0.00 0.50 0.01 91 1020.7
20260902152613 73 149 0.0 2.0 0.00 0.50 0.01 91 1020.8
20260902151842 73 145 0.0 2.0 0.00 0.50 0.01 91 1020.8
20260902151341 73 119 0.0 3.0 0.00 0.50 0.01 91 1020.8
20260902150812 73 148 0.0 3.0 0.00 0.50 0.01 91 1020.9
20260902150309 73 89 0.0 3.0 0.00 0.50 0.01 91 1020.9
20260902145804 73 96 0.0 3.0 0.00 0.50 0.01 91 1021.0
20260902145239 73 136 0.0 2.0 0.00 0.50 0.01 91 1021.2
20260902144711 73 87 0.0 2.0 0.00 0.50 0.01 91 1021.0
20260902144210 73 141 0.0 3.0 0.00 0.50 0.01 92 1021.0
20260902143928 73 66 1.0 4.0 0.00 0.50 0.01 92 1020.9
20260902143203 73 82 1.0 4.0 0.00 0.50 0.01 91 1020.7
20260902142636 73 118 1.0 5.0 0.00 0.50 0.01 92 1020.5
20260902142133 73 141 1.0 5.0 0.00 0.50 0.01 92 1020.5
20260902141632 72 122 1.0 7.0 0.00 0.50 0.01 92 1020.6
20260902141102 72 116 1.0 7.0 0.00 0.50 0.01 92 1020.5
20260902140600 72 117 2.0 6.0 0.00 0.50 0.01 93 1020.6
20260902140048 72 175 1.0 6.0 0.00 0.50 0.01 93 1020.5
20260902135520 72 91 0.0 5.0 0.00 0.50 0.01 93 1020.6
20260902135227 72 117 0.0 4.0 0.00 0.50 0.01 93 1020.7
20260902134439 72 117 0.0 4.0 0.00 0.50 0.01 93 1020.7
20260902134159 72 108 0.0 4.0 0.00 0.50 0.01 93 1020.6
20260902133432 72 172 0.0 3.0 0.00 0.50 0.01 93 1020.4
20260902132904 72 84 1.0 6.0 0.00 0.50 0.01 94 1020.4
20260902132629 71 82 1.0 6.0 0.00 0.50 0.01 94 1020.2
20260902132057 71 114 1.0 3.0 0.00 0.50 0.01 94 1020.3
20260902131332 71 86 0.0 3.0 0.00 0.50 0.01 94 1020.4
20260902131047 71 93 1.0 3.0 0.00 0.50 0.01 94 1020.5
20260902130324 71 106 1.0 5.0 0.00 0.50 0.01 94 1020.4
20260902125755 71 150 1.0 5.0 0.00 0.50 0.01 94 1020.4
20260902125253 71 144 1.0 6.0 0.00 0.50 0.01 94 1020.3
20260902124724 71 106 1.0 6.0 0.00 0.50 0.01 94 1020.3
20260902124222 71 126 1.0 3.0 0.00 0.50 0.01 94 1020.2
20260902123658 71 98 0.0 5.0 0.00 0.50 0.01 94 1020.2
20260902123129 71 107 1.0 5.0 0.00 0.50 0.01 94 1020.2
20260902122849 71 115 1.0 6.0 0.00 0.50 0.01 94 1020.2
20260902122100 71 146 1.0 6.0 0.00 0.50 0.01 94 1020.0
20260902121557 71 77 1.0 5.0 0.00 0.50 0.01 95 1019.9
20260902121029 71 129 0.0 4.0 0.00 0.50 0.01 95 1019.9
20260902121019 71 101 0.0 6.0 0.00 0.50 0.01 95 1019.8
20260902115959 71 88 1.0 6.0 0.00 0.50 0.01 95 1019.6
20260902115457 71 86 1.0 5.0 0.00 0.50 0.01 95 1019.7
20260902114932 71 125 1.0 5.0 0.00 0.50 0.01 94 1019.6
20260902114418 71 94 1.0 5.0 0.00 0.50 0.01 94 1019.7
20260902113840 71 97 0.0 3.0 0.00 0.50 0.01 95 1019.8
20260902113535 71 106 0.0 1.0 0.00 0.50 0.01 95 1019.9
20260902112808 71 141 0.0 1.0 0.00 0.50 0.01 95 1020.0
20260902112317 71 141 0.0 1.0 0.00 0.50 0.01 95 1019.9
20260902111803 71 143 0.0 1.0 0.00 0.50 0.01 95 1019.8
20260902111255 71 163 0.0 0.0 0.00 0.50 0.01 95 1019.8
20260902110751 71 143 0.0 0.0 0.00 0.50 0.01 95 1019.8
20260902110513 71 143 0.0 1.0 0.00 0.50 0.01 94 1019.7
20260902105743 71 146 0.0 1.0 0.00 0.50 0.01 94 1019.8
20260902105219 71 134 0.0 1.0 0.00 0.50 0.01 94 1019.6
20260902104708 71 127 0.0 1.0 0.00 0.50 0.01 94 1019.5
20260902104207 71 101 0.0 2.0 0.00 0.50 0.01 95 1019.6
20260902103922 71 101 0.0 2.0 0.00 0.50 0.01 94 1019.4
20260902103427 71 124 0.0 1.0 0.00 0.50 0.01 95 1019.4
20260902102655 71 124 0.0 1.0 0.00 0.50 0.01 94 1019.4
20260902102156 71 105 0.0 1.0 0.00 0.50 0.01 94 1019.5
20260902101646 71 106 0.0 1.0 0.00 0.50 0.01 94 1019.5
20260902101148 71 100 0.0 1.0 0.00 0.50 0.01 94 1019.4
20260902100625 71 198 0.0 1.0 0.00 0.50 0.01 94 1019.4
20260902100112 71 119 0.0 1.0 0.00 0.50 0.01 94 1019.4
20260902095548 72 226 0.0 1.0 0.00 0.50 0.01 95 1019.3
20260902095049 72 154 0.0 1.0 0.00 0.50 0.01 94 1019.2
20260902094527 72 204 0.0 2.0 0.00 0.50 0.01 95 1019.2
20260902094023 72 89 0.0 2.0 0.00 0.50 0.01 95 1019.2
20260902093525 72 89 0.0 2.0 0.00 0.50 0.01 95 1019.1
20260902093006 72 120 0.0 2.0 0.00 0.50 0.01 95 1019.0
20260902092452 72 144 0.0 1.0 0.00 0.50 0.01 94 1019.0
20260902091921 72 6 0.0 2.0 0.00 0.50 0.01 95 1019.0
20260902091421 72 88 0.0 2.0 0.00 0.50 0.01 94 1018.9
20260902090923 72 105 0.0 3.0 0.00 0.50 0.01 95 1018.9
20260902090658 72 198 0.0 3.0 0.00 0.50 0.01 94 1018.8
20260902090146 72 132 1.0 4.0 0.00 0.50 0.01 94 1018.8
20260902085423 72 160 1.0 5.0 0.00 0.50 0.01 94 1018.8
20260902085121 72 89 1.0 5.0 0.00 0.50 0.01 94 1018.8
20260902084338 72 79 0.0 2.0 0.00 0.50 0.01 94 1018.7
20260902083811 72 30 1.0 4.0 0.00 0.50 0.01 94 1018.6
20260902083526 72 155 0.0 2.0 0.00 0.50 0.01 94 1018.6
20260902083512 72 116 1.0 4.0 0.00 0.50 0.01 94 1018.7
20260902082246 72 108 0.0 1.0 0.00 0.50 0.01 95 1018.5
20260902082001 73 107 0.0 1.0 0.00 0.50 0.01 95 1018.5
20260902081241 73 117 0.0 1.0 0.00 0.50 0.01 95 1018.6
20260902080712 73 93 0.0 2.0 0.00 0.50 0.01 95 1018.6
20260902080432 73 105 0.0 2.0 0.00 0.50 0.01 95 1018.5
20260902075642 73 115 0.0 1.0 0.00 0.50 0.01 95 1018.5
20260902075140 73 115 0.0 1.0 0.00 0.50 0.01 94 1018.6
20260902074614 73 115 0.0 1.0 0.00 0.50 0.01 95 1018.6
20260902074045 73 110 0.0 2.0 0.00 0.50 0.01 95 1018.5
20260902073747 73 103 0.0 2.0 0.00 0.50 0.01 95 1018.3
20260902073443 73 103 0.0 2.0 0.00 0.50 0.01 95 1018.3
20260902072449 73 238 0.0 0.0 0.00 0.50 0.01 95 1018.2
20260902071921 73 238 0.0 0.0 0.00 0.50 0.01 95 1018.2
20260902071644 73 238 0.0 0.0 0.00 0.50 0.01 95 1018.1
20260902071115 73 238 0.0 0.0 0.00 0.50 0.01 95 1018.1
20260902070349 72 238 0.0 0.0 0.00 0.50 0.01 95 1018.0
20260902070338 72 238 0.0 0.0 0.00 0.50 0.01 95 1018.1
20260902065344 72 238 0.0 0.0 0.00 0.50 0.01 95 1018.0
20260902064842 72 238 0.0 0.0 0.00 0.50 0.01 95 1018.0
20260902064315 72 238 0.0 0.0 0.00 0.50 0.01 94 1017.9
20260902063809 72 238 0.0 0.0 0.00 0.50 0.01 94 1017.9
20260902063247 72 238 0.0 0.0 0.00 0.50 0.01 94 1017.7
20260902062719 72 238 0.0 0.0 0.00 0.50 0.01 94 1017.7